Location: Shepherdstown, WV
(39.4326°N, 77.8042°W)
Time: 15:41:45
(UTC-04:00)

Tiros 1 despin weight - Pass Details

Date: 09 August 2021
Orbit: 593 x 641 km, 48.2° (Epoch: 18 September)

Event Time Altitude Azimuth Distance (km) Brightness Sun altitude
Rises 12:08:56 0° 258° (WSW) 2,897 ? 62.0°
Reaches altitude 10° 12:11:19 10° 264° (W) 2,000 ? 62.3°
Maximum altitude 12:15:45 46° 338° (NNW) 855 ? 62.7°
Drops below altitude 10° 12:20:15 10° 52° (NE) 2,026 ? 63.2°
Sets 12:22:41 0° 59° (ENE) 2,940 ? 63.4°
